TimeHST,TemperatureF,Dew PointF,Humidity,Sea Level PressureIn,VisibilityMPH,Wind Direction,Wind SpeedMPH,Gust SpeedMPH,PrecipitationIn,Events,Conditions,WindDirDegrees,DateUTC
12:56 AM,80.1,69.1,69,29.88,10.0,SSW,12.7,-,N/A,,Overcast,200,2012-10-08 10:56:00
1:56 AM,80.1,69.1,69,29.87,10.0,SSW,12.7,-,N/A,,Scattered Clouds,210,2012-10-08 11:56:00
2:56 AM,79.0,64.0,60,29.86,10.0,SW,15.0,-,N/A,,Scattered Clouds,220,2012-10-08 12:56:00
3:56 AM,80.1,63.0,56,29.86,10.0,West,10.4,-,N/A,,Mostly Cloudy,260,2012-10-08 13:56:00
4:18 AM,77.0,62.6,61,29.85,2.5,SW,15.0,-,0.25,Rain,Heavy Rain,230,2012-10-08 14:18:00
4:21 AM,75.2,62.6,65,29.85,-9999.0,SW,12.7,19.6,0.32,Rain,Heavy Rain,230,2012-10-08 14:21:00
4:30 AM,77.0,62.6,61,29.85,-9999.0,SW,8.1,-,0.41,Rain,Rain,220,2012-10-08 14:30:00
4:56 AM,77.0,63.0,62,29.86,10.0,Calm,Calm,-,0.41,,Overcast,0,2012-10-08 14:56:00
5:07 AM,78.8,62.6,57,29.85,10.0,South,8.1,-,0.01,,Overcast,190,2012-10-08 15:07:00
5:56 AM,79.0,54.0,42,29.86,10.0,SSW,12.7,-,0.01,,Overcast,200,2012-10-08 15:56:00
6:56 AM,79.0,54.0,42,29.88,10.0,SSW,12.7,-,N/A,,Partly Cloudy,200,2012-10-08 16:56:00
7:56 AM,80.1,54.0,40,29.90,10.0,SSW,11.5,-,N/A,,Mostly Cloudy,200,2012-10-08 17:56:00
8:44 AM,75.2,51.8,44,29.92,10.0,West,13.8,21.9,N/A,,Overcast,280,2012-10-08 18:44:00
8:56 AM,75.9,52.0,43,29.93,9.0,WNW,10.4,-,0.00,Rain,Light Rain,290,2012-10-08 18:56:00
9:19 AM,77.0,55.4,47,29.92,6.2,West,9.2,-,0.00,Rain,Light Rain,270,2012-10-08 19:19:00
9:56 AM,75.9,48.0,37,29.94,5.0,WSW,12.7,-,0.03,Rain,Light Rain,250,2012-10-08 19:56:00
10:40 AM,78.8,44.6,30,29.92,10.0,Variable,4.6,-,0.01,,Overcast,0,2012-10-08 20:40:00
10:56 AM,78.1,44.1,30,29.94,10.0,SSE,4.6,-,0.01,,Overcast,150,2012-10-08 20:56:00
11:56 AM,80.1,35.1,20,29.92,10.0,South,6.9,-,N/A,,Overcast,170,2012-10-08 21:56:00
12:00 PM,80.6,35.6,20,29.91,6.2,SSW,9.2,-,N/A,,Overcast,200,2012-10-08 22:00:00
12:08 PM,80.6,32.0,17,29.91,6.2,South,10.4,-,N/A,,Overcast,190,2012-10-08 22:08:00
12:16 PM,82.4,30.2,15,29.91,10.0,South,12.7,-,N/A,,Overcast,180,2012-10-08 22:16:00
12:56 PM,82.9,27.0,13,29.90,10.0,South,13.8,-,N/A,,Partly Cloudy,190,2012-10-08 22:56:00
1:56 PM,82.9,73.0,72,29.88,10.0,South,11.5,-,N/A,,Partly Cloudy,190,2012-10-08 23:56:00
2:56 PM,82.9,71.1,67,29.87,10.0,South,12.7,17.3,N/A,,Partly Cloudy,190,2012-10-09 00:56:00
3:56 PM,82.9,73.9,74,29.87,10.0,South,12.7,-,N/A,,Partly Cloudy,180,2012-10-09 01:56:00
4:56 PM,81.0,75.0,82,29.89,10.0,South,11.5,-,N/A,,Scattered Clouds,190,2012-10-09 02:56:00
5:54 PM,80.6,75.2,84,29.89,10.0,South,9.2,-,N/A,,Overcast,180,2012-10-09 03:54:00
5:56 PM,81.0,75.0,82,29.90,10.0,South,9.2,-,N/A,,Overcast,180,2012-10-09 03:56:00
6:21 PM,80.6,75.2,84,29.89,10.0,South,10.4,-,N/A,,Scattered Clouds,180,2012-10-09 04:21:00
6:56 PM,80.1,75.9,87,29.91,10.0,South,8.1,-,N/A,,Partly Cloudy,170,2012-10-09 04:56:00
7:35 PM,80.6,69.8,70,29.92,10.0,SSE,4.6,-,N/A,,Mostly Cloudy,160,2012-10-09 05:35:00
7:56 PM,79.0,72.0,79,29.94,10.0,SSE,6.9,-,N/A,,Mostly Cloudy,160,2012-10-09 05:56:00
8:05 PM,78.8,71.6,78,29.93,10.0,South,6.9,-,N/A,,Scattered Clouds,170,2012-10-09 06:05:00
8:56 PM,79.0,73.0,82,29.95,10.0,South,6.9,-,N/A,,Clear,170,2012-10-09 06:56:00
9:56 PM,78.1,78.1,100,29.96,10.0,SE,5.8,-,N/A,,Partly Cloudy,140,2012-10-09 07:56:00
10:56 PM,77.0,68.0,74,29.96,10.0,SSE,3.5,-,N/A,,Clear,150,2012-10-09 08:56:00
11:56 PM,75.9,-9999,N/A,29.96,10.0,SSE,5.8,-,N/A,,Partly Cloudy,150,2012-10-09 09:56:00